Home   Weather   Valdivia   Past weeks

Flag for Chile Past Weather in Valdivia, Chile — Yesterday and Last 2 Weeks

Now
46 °F

Broken clouds.


Feels Like: 39 °F
Forecast: 40 / 54 °F
Wind: 18 mph from North

Location: Puerto Montt Airport

Current Time: Aug 20, 2017 at 12:21:12 pm

Latest Report: Aug 20, 2017 at 12:00 pm


Visibility: N/A

Pressure: 30.30 "Hg

Humidity: 82%

Dew Point: 41 °F

Location of ValdiviaLocation

Past Weather in Valdivia — Graph

°F

Valdivia Temperature Yesterday

Maximum temperature yesterday: 46 °F (at 1:00 pm)
Minimum temperature yesterday: 37 °F (at 10:00 pm)
Average temperature yesterday: 42 °F

High & Low Weather Summary for the Past Weeks

 TemperatureHumidityPressure
High54 °F (Aug 9, 3:00 pm)100% (Aug 7, 6:00 am)30.33 "Hg (Aug 7, 6:00 am)
Low37 °F (Aug 19, 10:00 pm)54% (Aug 15, 5:00 pm)29.27 "Hg (Aug 9, 4:00 am)
Average46 °F88%29.93 "Hg
* Reported Aug 5 10:00 am — Aug 20 11:00 am, Valdivia. Weather by CustomWeather, © 2017

Note: Actual official high and low records may vary slightly from our data, if they occured in-between our weather recording intervals... More about our weather records

Advertising

Valdivia Weather History for the Previous 24 Hours

Scroll right to see more
 ConditionsComfort  
Time TempWeatherWind HumidityBarometerVisibility
11:00 am
Sun, Aug 20
43 °FSprinkles. More clouds than sun.16 mph93%30.33 "HgN/A
10:00 am41 °FOvercast.9 mph93%30.33 "HgN/A
9:00 am41 °FPartly sunny.10 mph87%30.33 "HgN/A
8:00 am39 °FPassing clouds.7 mph93%30.33 "HgN/A
7:00 am39 °FPassing clouds.8 mph93%30.33 "HgN/A
6:00 am39 °FPassing clouds.7 mph87%30.33 "HgN/A
5:00 am39 °FPassing clouds.9 mph93%30.33 "HgN/A
4:00 am39 °FPassing clouds.7 mph93%30.33 "HgN/A
3:00 am39 °FPassing clouds.7 mph93%30.33 "HgN/A
2:00 am39 °FPassing clouds.6 mph87%30.33 "HgN/A
1:00 am37 °FPassing clouds.5 mph93%30.33 "HgN/A
12:00 am37 °FPassing clouds.3 mph93%30.33 "HgN/A
11:00 pm
Sat, Aug 19
37 °FPassing clouds.3 mph93%30.33 "HgN/A
10:00 pm37 °FClear.2 mph87%30.33 "Hg10 mi
9:00 pm39 °FPassing clouds.2 mph87%30.33 "HgN/A
8:00 pm43 °FPassing clouds.3 mph81%30.30 "HgN/A
7:00 pm43 °FScattered clouds.5 mph87%30.27 "HgN/A
6:00 pm46 °FScattered clouds.6 mph76%30.24 "HgN/A
5:00 pm45 °FSprinkles. Partly sunny.7 mph81%30.24 "HgN/A
4:00 pm45 °FSprinkles. Partly sunny.10 mph81%30.21 "HgN/A
3:00 pm45 °FSprinkles. Partly sunny.10 mph81%30.18 "HgN/A
2:00 pm46 °FScattered clouds.9 mph82%30.18 "HgN/A
1:00 pm46 °FScattered clouds.8 mph82%30.15 "HgN/A
12:00 pm43 °FScattered clouds.2 mph87%30.15 "HgN/A
Weather by CustomWeather, © 2017

See weather overviewHow to use our weather pages